Regional Weather Roundup
Issued by NWS Cleveland, OH

Home | Current Version | Previous Version | Graphics & Text | Print | Product List | Glossary On
Versions: 1 2 3 4 5 6 7 8 9 10 11 12 13 14 15 16 17 18 19 20 21 22 23 24 25 26 27 28 29 30 31 32 33 34 35 36 37 38 39 40 41 42 43 44 45 46 47 48 49 50
000
ASUS41 KCLE 020010
RWRCLE
OHIO REGIONAL WEATHER ROUNDUP
NATIONAL WEATHER SERVICE WILMINGTON, OH
800 PM EDT WED OCT 01 2014

NOTE: "FAIR" INDICATES FEW OR NO CLOUDS BELOW 12,000 FEET WITH NO
SIGNIFICANT WEATHER AND/OR OBSTRUCTIONS TO VISIBILITY.

OHZ001>008-015>018-024>027-034-035-043-044-020100-
   NORTHWEST OHIO

CITY           SKY/WX    TMP DP  RH WIND       PRES   REMARKS
DEFIANCE       CLEAR     57  51  80 CALM      30.00S
FINDLAY        CLEAR     61  50  67 SE3       30.00S
TOLEDO EXPRESS CLEAR     57  54  89 E3        30.01S
TOLEDO METCALF CLEAR     60  54  80 E6        30.03R
LIMA           CLEAR     56  50  80 E6        30.00S
$$

OHZ009>014-019>023-028>033-038-089-020100-
   NORTHEAST OHIO

CITY           SKY/WX    TMP DP  RH WIND       PRES   REMARKS
CLE-HOPKINS    PTCLDY    62  58  86 N3        30.04R
CLE-LAKEFRONT  CLEAR     63  60  90 NE7       30.01R
CUY CO. ARPT   PTCLDY    63  61  94 CALM      30.03R
LORAIN-ELYRIA  PTCLDY    62  57  83 CALM      30.03R HAZE
ASHTABULA      CLEAR     60  58  92 CALM      30.04R FOG
AKRON-CANTON   CLEAR     58  52  80 E3        30.03R
WOOSTER        CLEAR     53  50  89 CALM      30.03S FOG
MANSFIELD      CLEAR     57  54  89 S6        30.03R
YOUNGSTOWN     CLEAR     57  56  96 CALM      30.03S
$$

OHZ042-051>053-060>062-070>072-077>081-020100-
  SOUTHWEST OHIO

CITY           SKY/WX    TMP DP  RH WIND       PRES   REMARKS
CINC-COVINGTON PTCLDY    69  53  56 E6        29.99R
CINC-LUNKEN    CLEAR     64  57  78 NE3       29.99R
HAMILTON       CLEAR     63  52  67 E6        30.00S
DAYTON         PTCLDY    63  50  62 SE5       30.02S
WRIGHT-PAT AFB CLEAR     58  52  79 CALM      30.01R
DAYTON GENERAL CLEAR     59  51  75 NE5       30.00S
WILMINGTON     CLEAR     59  47  64 NE3       30.01S
$$

OHZ036-037-039>041-045>050-054>059-063>069-073>076-082>088-020100-
  CENTRAL AND SOUTHEAST OHIO

CITY           SKY/WX    TMP DP  RH WIND       PRES   REMARKS
COLUMBUS       CLEAR     61  52  72 E5        30.02R
OSU AIRPORT    CLEAR     61  51  70 E5        30.02R
BOLTON FIELD   CLEAR     58  50  74 CALM      30.02R
RICKENBACK AFB CLEAR     60  51  74 E7        30.01R
NEWARK         CLEAR     52  50  93 CALM      30.02S
MARION         CLEAR     59  52  77 SE5       30.02R
LANCASTER      CLEAR     55  51  86 CALM      30.02R
ZANESVILLE     CLEAR     59  52  77 N3        30.02S
NEW PHILLY     CLEAR     57  55  93 CALM      30.03R FOG
$$


USA.gov is the U.S. government's official web portal to all federal, state and local government web resources and services.